Regional Weather Roundup
Issued by NWS State College, PA

Home | Current Version | Previous Version | Graphics & Text | Print | Product List | Glossary On
Versions: 1 2 3 4 5 6 7 8 9 10 11 12 13 14 15 16 17 18 19 20 21 22 23 24 25 26 27 28 29 30 31 32 33 34 35 36 37 38 39 40 41 42 43 44 45 46 47 48 49 50
545
ASUS41 KCTP 210003
RWRCTP

REGIONAL WEATHER ROUNDUP
NATIONAL WEATHER SERVICE STATE COLLEGE PA
800 PM EDT WED SEP 20 2017

Note: "fair" indicates few or no clouds below 12,000 feet with no
significant weather and/or obstructions to visibility.

* = STATION THAT DOES NOT REPORT PRECIPITATION /E.G. RAIN...SNOW...ETC/
    THUNDER OR FOG.

PAZ002>004-007>009-013>016-020>023-029>032-210100-
WESTERN PENNSYLVANIA

CITY           SKY/WX    TMP DP  RH WIND       PRES   REMARKS
ERIE           CLEAR     71  63  75 E3        30.03R
MEADVILLE      CLEAR     73  63  70 N5        30.05R
FRANKLIN*      CLEAR     72  61  68 CALM      30.06R
NEW CASTLE     CLOUDY    73  66  78 CALM      30.03R
BEAVER COUNTY  PTCLDY    73  63  68 CALM      30.03R
BUTLER*        CLEAR     71  65  81 CALM      30.03S
PITTSBURGH INT PTCLDY    75  65  70 CALM      30.02S
PITTSBURGH     CLEAR     75  63  66 W5        30.02R
INDIANA*       CLEAR     68  64  88 CALM      30.06R
LATROBE        CLEAR     72  64  78 CALM      30.03R
WASHINGTON CO* CLEAR     68  64  88 CALM      30.04R
$$

PAZ004>006-010>012-017>019-024>028-033>037-041-042-045-046-049>053-210100-
CENTRAL PENNSYLVANIA

CITY           SKY/WX    TMP DP  RH WIND       PRES   REMARKS
BRADFORD       CLEAR     66  61  84 CALM      30.07R
DUBOIS         CLEAR     68  59  73 CALM      30.04R
CLEARFIELD     CLEAR     70  61  73 N6        30.03R
JOHNSTOWN      CLEAR     71  56  58 NW6       30.07R
ALTOONA        CLEAR     66  61  84 CALM      30.03R
STATE COLLEGE  CLEAR     73  59  60 CALM      30.01R
WILLIAMSPORT   CLEAR     71  63  75 W3        29.97R
SELINSGROVE    CLEAR     66  66 100 CALM      29.97R
FT INDIANTOWN  CLEAR     71  63  75 N5        29.95S
CAPITAL CITY   CLEAR     74  61  63 SW5       29.95S
HARRISBURG     PTCLDY    71  65  81 NW5       29.95R
YORK           CLEAR     68  66  93 CALM      29.96S
$$

PAZ038>040-043-044-047-048-054-055-060>062-067>071-210100-
EASTERN PENNSYLVANIA

CITY           SKY/WX    TMP DP  RH WIND       PRES   REMARKS
SCRANTON       CLEAR     73  61  65 E3        29.98R
MOUNT POCONO   CLEAR     69  60  73 N6        30.02R
ALLENTOWN      PTCLDY    74  61  63 CALM      29.94R
QUAKERTOWN*    MOCLDY    73  66  78 CALM      29.96R
READING        CLEAR     75  66  73 N3        29.93R
LANCASTER      CLEAR     74  65  73 NW6       29.95R
COATESVILLE    CLEAR     73  64  73 NW5       29.97R
POTTSTOWN      PTCLDY    73  66  78 NE3       29.96R
BLUE BELL      PTCLDY    68  64  88 CALM      29.95R
DOYLESTOWN     CLEAR     73  65  75 CALM      29.94R
WILLOW GROVE   NOT AVBL
NORTH PHILA    CLOUDY    78  66  66 NE6       29.93S
PHILADELPHIA   PTCLDY    80  64  58 VRB6      29.92R
$$




USA.gov is the U.S. government's official web portal to all federal, state and local government web resources and services.